This is the latest recevied weather packets stored in our database for station/object KD2SIG. If no packets are shown the sender has not sent any weather packets the latest 10 day(s).
| Time | Temp. | Humidity | Pressure | Rain* | Wind** | Luminosity | Snow |
|---|---|---|---|---|---|---|---|
| 1778002216 | 14.44° C | 86% | 1004.3 hPa | 0 mm | - | 242 W/m² | - |
| 1778001914 | 14.44° C | 87% | 1004.5 hPa | 1.27 mm | - | 537 W/m² | - |
| 1778001609 | 14.44° C | 86% | 1004.4 hPa | 3.05 mm | - | 297 W/m² | - |
| 1778001305 | 14.44° C | 87% | 1004.7 hPa | 4.83 mm | - | 81 W/m² | - |
| 1778001002 | 14.44° C | 88% | 1004.7 hPa | 6.1 mm | - | 42 W/m² | - |
| 1778000699 | 15° C | 87% | 1004.9 hPa | 6.1 mm | - | 42 W/m² | - |
| 1778000394 | 15° C | 86% | 1004.8 hPa | 1.78 mm | - | 54 W/m² | - |
| 1778000090 | 15° C | 85% | 1004.7 hPa | 1.27 mm | - | 21 W/m² | - |
| 1777999786 | 15.56° C | 84% | 1004.5 hPa | 1.27 mm | - | 74 W/m² | - |
| 1777999483 | 16.11° C | 82% | 1004.6 hPa | 0 mm | - | 47 W/m² | - |
| 1777999181 | 16.11° C | 83% | 1004.3 hPa | 1.78 mm | - | 22 W/m² | - |
| 1777998879 | 16.11° C | 82% | 1004.4 hPa | 1.78 mm | - | 22 W/m² | - |
| 1777998578 | 17.22° C | 80% | 1004.3 hPa | 0 mm | - | 34 W/m² | - |
| 1777998273 | 18.89° C | 73% | 1003.9 hPa | 0 mm | - | 15 W/m² | - |
| 1777997970 | 18.89° C | 72% | 1003.5 hPa | 0 mm | - | 42 W/m² | - |
| 1777997667 | 19.44° C | 72% | 1003.3 hPa | 0 mm | - | 49 W/m² | - |
| 1777997364 | 19.44° C | 71% | 1003.3 hPa | 0 mm | - | 91 W/m² | - |
| 1777997063 | 20° C | 69% | 1003.5 hPa | 0 mm | - | 52 W/m² | - |
| 1777996759 | 20° C | 68% | 1003.3 hPa | 0 mm | - | 71 W/m² | - |
| 1777996455 | 20.56° C | 68% | 1003.2 hPa | 0 mm | - | 75 W/m² | - |
| 1777996152 | 20.56° C | 67% | 1003.1 hPa | 0 mm | - | 183 W/m² | - |
| 1777995848 | 20.56° C | 68% | 1003.3 hPa | 0 mm | - | 321 W/m² | - |
| 1777995545 | 20.56° C | 68% | 1003.2 hPa | 0 mm | - | 209 W/m² | - |
| 1777995241 | 20.56° C | 67% | 1003.6 hPa | 0 mm | - | 173 W/m² | - |
| 1777994938 | 20.56° C | 65% | 1003.5 hPa | 0 mm | - | 196 W/m² | - |
* Rain latest hour (hover to see other rain measurements)
** Current wind speed in m/s (hover to see current wind gust speed)